Wind_Speed
7 9 12 14 13 15 17 20 12 8 10 15 17 14 16 18 19 20 21 21 20 22 24 25 23 19 17 15 14 15 21 15 20 20 20 35 43 53
10 10 10 12 15 16 18 21 22 18 10 17 19 23 22 22 21 22 25 27 30 29 27 23 21 20 19 15 17 15 13 20 15 16 17 17 42 55
12 14 16 16 18 19 20 22 23 23 13 22 22 23 26 25 25 26 26 25 23 20 21 22 22 21 19 19 16 15 16 15 12 15 16 16 14 45
17 18 19 21 21 20 20 22 23 22 21 18 21 19 24 26 26 26 25 25 29 33 34 34 33 32 27 23 22 18 18 18 14 13 13 14 18 17
19 19 19 18 21 23 26 25 24 23 23 22 25 24 24 26 27 29 33 31 33 34 34 33 31 30 29 29 25 23 21 23 20 19 19 17 13 19
17 21 24 26 27 26 25 25 23 22 21 22 23 24 21 22 24 23 24 26 28 29 30 30 30 30 29 28 28 27 25 26 23 21 21 23 19 15
27 28 29 28 25 26 25 24 22 20 21 20 19 21 19 17 17 22 24 26 25 26 28 30 29 31 30 29 28 27 25 27 25 23 22 22 22 22
26 25 27 26 26 25 24 24 26 24 24 21 21 21 23 21 20 21 22 18 9 21 27 28 26 27 24 20 22 25 25 26 28 25 24 22 22 22
26 27 26 23 22 24 25 26 26 27 28 29 27 26 24 23 23 21 23 23 23 25 22 21 18 20 21 20 18 17 23 24 26 25 24 23 23 23
26 26 25 26 23 23 25 26 28 29 30 31 32 33 33 30 28 27 27 27 27 26 24 17 22 25 28 27 24 20 13 18 23 23 23 24 24 23
24 22 23 23 23 24 28 29 29 29 29 29 32 36 35 34 30 26 23 20 13 20 23 22 20 21 26 29 26 27 23 15 18 20 22 24 23 23
21 21 22 24 24 24 26 25 25 21 20 22 28 31 32 33 37 34 24 20 17 6 20 16 17 14 5 11 14 19 26 23 19 22 20 20 21 21
21 22 23 20 21 25 23 25 26 26 26 25 23 25 26 26 29 29 32 29 20 18 22 19 13 16 12 10 15 11 7 10 10 12 14 16 17 19
24 23 21 18 23 23 21 21 23 23 22 20 19 19 20 23 26 27 29 31 32 29 21 24 19 19 12 8 6 10 15 15 10 10 9 12 14 15
19 19 17 19 20 20 20 20 18 17 16 14 15 19 22 24 23 24 28 28 26 28 30 28 22 21 20 13 9 9 5 4 8 11 12 9 14 16
18 15 17 19 18 18 22 23 21 19 15 13 13 16 12 15 16 18 16 19 17 17 22 23 25 25 18 20 19 15 15 9 7 9 14 16 15 16
12 15 19 23 22 21 21 21 23 24 21 19 15 13 10 6 8 10 15 15 13 12 13 19 21 24 25 20 12 18 18 16 20 19 16 16 15 14
11 13 15 18 18 19 20 20 20 23 23 20 16 14 12 9 6 6 7 10 11 13 13 15 17 16 12 12 21 17 18 17 18 15 13 11 13 10
14 15 15 16 18 18 18 19 18 23 23 20 17 17 17 15 13 8 10 11 11 12 14 17 15 12 6 6 5 14 14 13 13 11 11 11 7 6
16 15 16 17 18 18 21 21 23 22 25 23 21 18 15 14 12 12 11 5 2 1 0 2 3 3 2 4 4 4 5 11 13 11 6 6 5 2
16 17 19 19 20 21 23 25 24 20 24 23 22 20 16 12 11 13 10 8 4 4 4 4 3 3 9 13 7 5 18 6 6 9 10 7 3 1
18 18 19 21 22 23 24 24 24 25 22 24 22 19 17 15 13 11 12 9 9 6 8 8 7 6 4 4 6 6 7 11 11 9 7 3 2 2
17 18 18 20 22 23 23 24 24 24 23 23 22 20 17 16 13 12 12 12 10 9 7 8 10 12 9 11 9 7 9 8 9 11 12 7 2 2
Wind_Direction
279 281 272 278 274 271 267 264 250 287 286 283 287 286 281 281 283 285 286 289 292 295 300 301 300 300 301 268 277 268 263 293 280 275 257 216 221 217
272 264 266 275 280 280 277 275 268 256 274 276 276 283 283 278 277 278 278 282 284 288 290 294 295 293 293 269 262 269 262 259 279 287 259 253 221 215
298 297 293 292 286 285 282 276 267 259 259 275 276 278 279 277 277 278 278 280 279 278 281 285 289 292 290 285 272 260 268 260 256 278 284 256 249 224
298 296 293 294 289 289 284 279 277 271 264 276 278 274 274 276 278 277 277 270 273 276 278 278 280 281 282 283 279 268 250 257 251 250 277 265 245 236
294 288 288 291 291 290 289 282 277 274 267 269 275 274 269 268 265 265 269 271 271 273 274 275 275 274 274 271 271 267 253 238 247 259 258 268 269 252
291 291 295 297 295 290 283 277 276 272 270 268 270 272 267 264 260 262 266 265 263 264 266 268 272 274 271 267 261 259 250 234 235 249 255 257 260 261
298 300 300 299 290 284 281 279 274 266 267 264 261 263 260 252 242 253 259 268 269 264 266 270 268 274 272 268 262 257 251 232 240 249 239 248 260 256
294 295 296 294 292 288 282 277 273 271 268 262 258 257 260 255 247 243 247 257 272 270 263 263 261 267 267 265 262 253 250 243 239 243 244 248 253 255
299 297 295 291 289 285 280 278 276 273 267 267 267 263 264 254 248 245 240 244 253 257 261 268 259 267 276 280 280 266 248 240 239 240 243 247 247 253
303 303 297 295 289 289 288 280 273 269 263 260 255 257 258 257 246 246 245 245 254 256 253 258 264 268 276 276 273 262 267 244 238 240 243 246 250 254
311 302 297 294 296 294 288 282 279 273 272 265 263 262 257 254 248 243 236 234 247 249 244 242 258 263 268 272 270 256 256 264 251 244 248 250 254 256
307 298 296 293 298 304 298 293 292 287 280 279 274 262 260 255 252 245 240 233 237 236 243 222 242 244 274 270 266 255 248 258 260 250 253 249 252 259
304 304 304 309 311 311 306 298 289 290 287 280 276 258 254 251 248 244 242 238 240 232 241 229 227 230 229 273 287 298 247 248 251 248 249 251 254 258
307 311 315 321 325 324 322 315 310 301 285 274 271 261 252 243 240 239 243 242 242 241 249 237 234 232 218 238 264 283 276 262 248 255 270 275 274 274
322 324 330 330 333 340 345 338 343 339 314 279 269 269 263 256 249 238 240 246 245 246 248 243 235 230 236 237 247 234 268 280 268 276 290 292 292 287
332 340 350 354 355 352 353 356 358 353 344 329 322 331 323 267 248 239 227 226 230 238 248 244 241 242 238 233 231 254 259 241 266 264 283 288 280 283
346 5 6 5 359 354 347 349 358 360 353 347 334 347 352 324 276 265 237 222 218 221 230 244 243 242 244 241 227 232 245 243 249 258 262 269 268 274
18 10 1 358 355 348 347 349 354 353 352 349 356 351 345 335 296 291 251 249 227 225 239 244 241 226 213 223 233 234 231 243 250 239 238 249 263 268
22 14 3 356 354 350 350 351 348 351 1 10 10 16 17 23 32 343 274 238 235 237 243 255 238 202 194 204 199 220 214 208 196 199 219 228 254 270
20 14 0 358 358 356 2 2 5 356 6 13 15 22 26 18 18 21 31 25 17 354 65 85 143 158 187 182 139 69 188 182 177 185 177 176 162 158
11 15 12 8 5 8 13 16 18 4 5 14 19 23 25 29 23 20 19 28 44 66 78 58 61 135 131 127 104 62 72 113 185 174 168 172 180 165
17 17 17 19 18 17 17 18 17 17 7 12 19 23 28 34 33 31 32 43 53 80 93 91 103 119 109 112 119 110 96 96 117 134 149 160 224 214
13 15 17 20 20 19 19 19 20 19 18 15 17 22 29 35 37 45 51 57 75 81 73 68 64 76 88 117 117 113 116 105 94 92 75 55 46 119
Height
776 777 778 779 779 779 780 781 778 772 766 767 768 768 769 769 768 768 768 767 766 765 763 762 762 762 760 758 757 756 758 756 756 756 753 753 756 762
771 772 772 773 772 772 773 772 771 769 763 763 763 762 763 762 762 762 762 761 760 760 759 757 757 756 755 755 755 754 749 752 752 753 750 748 746 753
768 768 767 767 765 765 765 764 763 763 760 755 756 756 754 754 754 755 755 754 753 753 752 751 751 751 750 750 749 748 746 749 744 749 749 745 745 748
764 762 761 760 759 758 758 757 757 756 755 750 749 749 748 747 747 747 747 746 746 745 744 744 744 743 743 743 742 741 742 743 742 744 744 743 742 741
759 757 756 755 754 754 752 750 749 748 747 745 740 741 740 740 739 738 737 736 736 735 735 734 735 734 734 735 735 734 734 738 737 738 738 740 738 736
754 753 751 750 748 746 744 742 741 740 740 738 735 732 733 732 731 730 728 727 725 726 726 726 726 725 725 726 726 726 727 728 735 735 734 734 733 733
748 747 745 743 741 739 737 735 734 733 732 730 727 725 724 725 724 724 721 720 717 718 717 716 717 717 717 717 716 717 719 723 725 726 728 729 729 729
743 740 738 736 733 731 729 728 728 726 724 722 719 716 715 716 716 716 715 715 712 712 710 707 709 708 709 709 709 709 710 713 716 719 720 722 724 724
738 734 731 728 726 724 721 720 718 717 716 714 710 709 707 708 709 708 708 707 705 704 706 703 704 702 703 704 704 703 703 705 709 712 714 716 717 717
732 728 725 721 719 717 714 710 708 706 704 703 700 698 698 699 698 698 699 698 698 698 699 696 697 695 696 697 698 698 698 699 702 705 707 709 711 712
726 722 719 716 713 711 707 702 698 695 693 691 690 688 687 688 689 690 689 691 689 689 690 691 691 690 689 688 689 691 693 694 696 698 700 703 704 706
721 717 713 710 706 703 699 694 689 686 684 682 679 677 677 677 678 680 681 681 683 683 682 685 685 687 683 680 679 681 685 688 689 692 694 696 698 699
715 711 707 704 701 696 692 688 683 680 676 673 670 668 667 667 668 669 671 673 674 674 674 677 678 679 681 679 676 678 680 683 684 686 688 690 691 693
711 706 702 699 695 689 685 681 676 672 668 665 663 661 659 658 658 660 661 663 665 667 669 671 673 674 675 675 676 675 676 678 680 682 683 684 685 686
707 703 699 695 690 686 681 676 671 667 663 660 657 654 652 651 652 653 654 656 658 660 662 664 665 667 669 671 672 672 674 675 676 677 679 679 679 678
704 701 697 693 689 685 680 675 671 666 662 658 655 651 647 646 647 648 650 651 653 654 655 658 660 662 663 666 667 668 670 673 672 674 675 674 674 672
703 700 696 692 688 684 680 676 671 666 662 658 654 650 648 646 646 646 646 647 649 649 650 652 654 656 658 661 662 663 665 666 668 669 670 669 669 668
703 701 698 695 692 687 683 678 673 668 664 659 654 651 648 645 644 644 645 646 646 646 647 648 649 651 653 655 656 657 659 661 662 664 666 666 665 665
704 702 701 698 694 690 686 681 676 672 667 661 657 653 649 646 644 642 642 642 642 642 642 643 643 644 647 649 652 652 654 656 658 661 663 664 663 662
707 705 703 700 696 693 688 683 678 674 669 664 660 655 652 650 647 645 643 641 641 641 642 641 642 642 644 646 650 652 652 653 655 658 661 662 663 662
710 708 705 702 698 694 690 686 682 678 674 668 663 659 655 652 650 648 645 644 643 642 643 643 642 643 643 645 649 653 652 653 655 657 659 661 661 660
713 710 707 704 700 696 692 688 684 680 676 672 667 662 658 655 652 650 648 646 645 645 646 646 645 645 645 646 651 654 656 656 656 657 659 660 660 659
715 712 709 705 702 698 694 691 687 683 679 675 671 666 662 658 655 653 651 649 648 648 648 648 647 646 647 650 653 656 658 659 659 660 660 659 659 657